| time (UTC) | temp F | wind direction | speed MPH | gust MPH | rain 1hr in | rain 24hr in | rain mn in | humidity % | barometer mb |
| 20260504231507 | 75 | 181 | 3.0 | 7.0 | 0.00 | 0.00 | 0.00 | 57 | 1011.6 |
| 20260504230508 | 76 | 215 | 2.0 | 7.0 | 0.00 | 0.00 | 0.00 | 56 | 1011.8 |
| 20260504230009 | 76 | 243 | 2.0 | 7.0 | 0.00 | 0.00 | 0.00 | 56 | 1011.8 |
| 20260504225506 | 76 | 309 | 2.0 | 8.0 | 0.00 | 0.00 | 0.00 | 55 | 1011.8 |
| 20260504224509 | 76 | 194 | 3.0 | 10.0 | 0.00 | 0.00 | 0.00 | 53 | 1011.8 |
| 20260504223507 | 77 | 209 | 3.0 | 9.0 | 0.00 | 0.00 | 0.00 | 53 | 1011.9 |
| 20260504223010 | 77 | 171 | 2.0 | 4.0 | 0.00 | 0.00 | 0.00 | 54 | 1011.9 |
| 20260504222507 | 77 | 174 | 2.0 | 9.0 | 0.00 | 0.00 | 0.00 | 54 | 1011.9 |
| 20260504222009 | 77 | 159 | 3.0 | 9.0 | 0.00 | 0.00 | 0.00 | 53 | 1011.9 |
| 20260504221506 | 77 | 167 | 3.0 | 8.0 | 0.00 | 0.00 | 0.00 | 53 | 1012.0 |
| 20260504221008 | 77 | 210 | 2.0 | 9.0 | 0.00 | 0.00 | 0.00 | 53 | 1012.0 |
| 20260504220507 | 77 | 149 | 2.0 | 8.0 | 0.00 | 0.00 | 0.00 | 53 | 1012.1 |
| 20260504220010 | 77 | 240 | 2.0 | 8.0 | 0.00 | 0.00 | 0.00 | 53 | 1012.2 |
| 20260504215507 | 77 | 190 | 1.0 | 8.0 | 0.00 | 0.00 | 0.00 | 53 | 1012.4 |
| 20260504215008 | 77 | 5 | 2.0 | 11.0 | 0.00 | 0.00 | 0.00 | 52 | 1012.4 |
| 20260504214507 | 77 | 248 | 3.0 | 13.0 | 0.00 | 0.00 | 0.00 | 51 | 1012.4 |
| 20260504214009 | 78 | 224 | 3.0 | 13.0 | 0.00 | 0.00 | 0.00 | 50 | 1012.4 |
| 20260504213507 | 78 | 190 | 2.0 | 10.0 | 0.00 | 0.00 | 0.00 | 51 | 1012.6 |
| 20260504213009 | 78 | 255 | 3.0 | 8.0 | 0.00 | 0.00 | 0.00 | 51 | 1012.5 |
| 20260504212507 | 78 | 279 | 3.0 | 9.0 | 0.00 | 0.00 | 0.00 | 50 | 1012.6 |
| 20260504212007 | 79 | 175 | 3.0 | 12.0 | 0.00 | 0.00 | 0.00 | 50 | 1012.7 |
| 20260504211507 | 79 | 143 | 3.0 | 12.0 | 0.00 | 0.00 | 0.00 | 49 | 1012.6 |
| 20260504211009 | 79 | 92 | 3.0 | 9.0 | 0.00 | 0.00 | 0.00 | 49 | 1012.8 |
| 20260504210008 | 79 | 250 | 4.0 | 13.0 | 0.00 | 0.00 | 0.00 | 48 | 1012.9 |
| 20260504205506 | 79 | 209 | 4.0 | 13.0 | 0.00 | 0.00 | 0.00 | 50 | 1013.0 |
| 20260504205007 | 79 | 228 | 2.0 | 9.0 | 0.00 | 0.00 | 0.00 | 48 | 1013.1 |
| 20260504204506 | 79 | 214 | 2.0 | 8.0 | 0.00 | 0.00 | 0.00 | 50 | 1013.3 |
| 20260504204007 | 79 | 164 | 3.0 | 9.0 | 0.00 | 0.00 | 0.00 | 50 | 1013.2 |
| 20260504203506 | 79 | 217 | 4.0 | 11.0 | 0.00 | 0.00 | 0.00 | 48 | 1013.3 |
| 20260504203008 | 79 | 264 | 4.0 | 11.0 | 0.00 | 0.00 | 0.00 | 49 | 1013.5 |
| 20260504202505 | 79 | 107 | 4.0 | 10.0 | 0.00 | 0.00 | 0.00 | 48 | 1013.4 |
| 20260504201506 | 79 | 242 | 3.0 | 11.0 | 0.00 | 0.00 | 0.00 | 48 | 1013.7 |
| 20260504201006 | 80 | 175 | 3.0 | 11.0 | 0.00 | 0.00 | 0.00 | 49 | 1013.8 |
| 20260504200506 | 79 | 322 | 3.0 | 8.0 | 0.00 | 0.00 | 0.00 | 48 | 1013.8 |
| 20260504200009 | 79 | 244 | 4.0 | 12.0 | 0.00 | 0.00 | 0.00 | 48 | 1014.0 |
| 20260504195506 | 79 | 213 | 4.0 | 12.0 | 0.00 | 0.00 | 0.00 | 47 | 1014.1 |
| 20260504195007 | 79 | 300 | 3.0 | 11.0 | 0.00 | 0.00 | 0.00 | 49 | 1014.2 |
| 20260504194507 | 80 | 207 | 2.0 | 10.0 | 0.00 | 0.00 | 0.00 | 47 | 1014.3 |
| 20260504194008 | 80 | 194 | 2.0 | 8.0 | 0.00 | 0.00 | 0.00 | 49 | 1014.2 |
| 20260504193505 | 80 | 83 | 3.0 | 9.0 | 0.00 | 0.00 | 0.00 | 48 | 1014.5 |
| 20260504193007 | 80 | 150 | 4.0 | 9.0 | 0.00 | 0.00 | 0.00 | 47 | 1014.5 |
| 20260504192507 | 80 | 144 | 3.0 | 9.0 | 0.00 | 0.00 | 0.00 | 48 | 1014.5 |
| 20260504192006 | 80 | 227 | 3.0 | 12.0 | 0.00 | 0.00 | 0.00 | 47 | 1014.5 |
| 20260504191008 | 79 | 171 | 3.0 | 8.0 | 0.00 | 0.00 | 0.00 | 46 | 1014.6 |
| 20260504190507 | 80 | 157 | 3.0 | 10.0 | 0.00 | 0.00 | 0.00 | 49 | 1015.0 |
| 20260504190011 | 79 | 174 | 3.0 | 10.0 | 0.00 | 0.00 | 0.00 | 48 | 1015.2 |
| 20260504185008 | 79 | 18 | 3.0 | 9.0 | 0.00 | 0.00 | 0.00 | 46 | 1015.4 |
| 20260504184508 | 79 | 170 | 2.0 | 7.0 | 0.00 | 0.00 | 0.00 | 44 | 1015.5 |
| 20260504183507 | 79 | 139 | 3.0 | 10.0 | 0.00 | 0.00 | 0.00 | 47 | 1015.6 |
| 20260504183009 | 79 | 257 | 3.0 | 10.0 | 0.00 | 0.00 | 0.00 | 44 | 1015.7 |
| 20260504182509 | 79 | 219 | 3.0 | 10.0 | 0.00 | 0.00 | 0.00 | 46 | 1015.7 |
| 20260504181507 | 78 | 180 | 3.0 | 12.0 | 0.00 | 0.00 | 0.00 | 43 | 1015.9 |
| 20260504180508 | 78 | 69 | 2.0 | 8.0 | 0.00 | 0.00 | 0.00 | 47 | 1015.8 |
| 20260504180012 | 78 | 237 | 3.0 | 11.0 | 0.00 | 0.00 | 0.00 | 47 | 1015.9 |
| 20260504175506 | 78 | 304 | 3.0 | 11.0 | 0.00 | 0.00 | 0.00 | 44 | 1015.9 |
| 20260504175008 | 78 | 321 | 3.0 | 8.0 | 0.00 | 0.00 | 0.00 | 46 | 1015.9 |
| 20260504174506 | 78 | 188 | 4.0 | 12.0 | 0.00 | 0.00 | 0.00 | 46 | 1016.1 |
| 20260504174006 | 78 | 265 | 3.0 | 12.0 | 0.00 | 0.00 | 0.00 | 46 | 1016.1 |
| 20260504173507 | 78 | 248 | 3.0 | 10.0 | 0.00 | 0.00 | 0.00 | 46 | 1016.0 |
| 20260504173007 | 78 | 319 | 4.0 | 11.0 | 0.00 | 0.00 | 0.00 | 46 | 1016.3 |
| 20260504172506 | 77 | 217 | 3.0 | 11.0 | 0.00 | 0.00 | 0.00 | 46 | 1016.4 |
| 20260504172008 | 77 | 226 | 4.0 | 11.0 | 0.00 | 0.00 | 0.00 | 48 | 1016.5 |
| 20260504171506 | 77 | 269 | 5.0 | 13.0 | 0.00 | 0.00 | 0.00 | 46 | 1016.6 |
| 20260504170507 | 77 | 311 | 4.0 | 10.0 | 0.00 | 0.00 | 0.00 | 47 | 1016.7 |
| 20260504151007 | 72 | 167 | 4.0 | 10.0 | 0.00 | 0.00 | 0.00 | 61 | 1017.1 |
| 20260504150506 | 71 | 155 | 3.0 | 9.0 | 0.00 | 0.00 | 0.00 | 63 | 1017.3 |
| 20260504141006 | 61 | 170 | 2.0 | 5.0 | 0.00 | 0.00 | 0.00 | 84 | 1017.4 |
| 20260504140507 | 60 | 237 | 1.0 | 5.0 | 0.00 | 0.00 | 0.00 | 85 | 1017.6 |
| 20260504130506 | 53 | 180 | 0.0 | 2.0 | 0.00 | 0.00 | 0.00 | 92 | 1017.0 |
| 20260504110505 | 51 | 195 | 0.0 | 0.0 | 0.00 | 0.00 | 0.00 | 89 | 1017.0 |
| 20260504100506 | 53 | 195 | 0.0 | 0.0 | 0.00 | 0.00 | 0.00 | 88 | 1016.8 |
| 20260504082006 | 54 | 195 | 0.0 | 0.0 | 0.00 | 0.00 | 0.00 | 87 | 1017.2 |
| 20260504081505 | 54 | 195 | 0.0 | 0.0 | 0.00 | 0.00 | 0.00 | 87 | 1017.2 |
| 20260504081006 | 54 | 195 | 0.0 | 0.0 | 0.00 | 0.00 | 0.00 | 86 | 1017.2 |
| 20260504080505 | 55 | 195 | 0.0 | 0.0 | 0.00 | 0.00 | 0.00 | 86 | 1017.3 |
| 20260504050506 | 58 | 195 | 0.0 | 0.0 | 0.00 | 0.00 | 0.00 | 84 | 1018.4 |
| 20260504050013 | 58 | 195 | 0.0 | 0.0 | 0.00 | 0.00 | 0.00 | 83 | 1018.4 |
| 20260504045506 | 58 | 195 | 0.0 | 0.0 | 0.00 | 0.00 | 0.00 | 83 | 1018.4 |
| 20260504043507 | 59 | 195 | 0.0 | 0.0 | 0.00 | 0.00 | 0.00 | 83 | 1018.4 |
| 20260504041507 | 59 | 195 | 0.0 | 0.0 | 0.00 | 0.00 | 0.00 | 83 | 1018.5 |
| 20260504041008 | 59 | 195 | 0.0 | 0.0 | 0.00 | 0.00 | 0.00 | 83 | 1018.6 |
| 20260504040506 | 59 | 195 | 0.0 | 0.0 | 0.00 | 0.00 | 0.00 | 83 | 1018.5 |
| 20260504040010 | 60 | 195 | 0.0 | 0.0 | 0.00 | 0.00 | 0.00 | 83 | 1018.5 |
| 20260504035007 | 60 | 195 | 0.0 | 2.0 | 0.00 | 0.00 | 0.00 | 83 | 1018.6 |
| 20260504034508 | 60 | 194 | 0.0 | 2.0 | 0.00 | 0.00 | 0.00 | 82 | 1018.6 |
| 20260504034009 | 60 | 231 | 0.0 | 2.0 | 0.00 | 0.00 | 0.00 | 82 | 1018.6 |
| 20260504033507 | 60 | 231 | 0.0 | 2.0 | 0.00 | 0.00 | 0.00 | 82 | 1018.6 |
| 20260504033010 | 60 | 220 | 0.0 | 2.0 | 0.00 | 0.00 | 0.00 | 82 | 1018.6 |
| 20260504032507 | 60 | 201 | 0.0 | 1.0 | 0.00 | 0.00 | 0.00 | 81 | 1018.6 |
| 20260504032009 | 60 | 201 | 0.0 | 2.0 | 0.00 | 0.00 | 0.00 | 81 | 1018.5 |
| 20260504031507 | 60 | 55 | 0.0 | 0.0 | 0.00 | 0.00 | 0.00 | 81 | 1018.5 |
| 20260504031010 | 61 | 55 | 0.0 | 0.0 | 0.00 | 0.00 | 0.00 | 81 | 1018.5 |
| 20260504030010 | 61 | 55 | 0.0 | 0.0 | 0.00 | 0.00 | 0.00 | 80 | 1018.5 |
| 20260504025507 | 61 | 56 | 0.0 | 0.0 | 0.00 | 0.00 | 0.00 | 80 | 1018.3 |
| 20260504025009 | 61 | 56 | 0.0 | 0.0 | 0.00 | 0.00 | 0.00 | 80 | 1018.3 |
| 20260504024508 | 61 | 56 | 0.0 | 0.0 | 0.00 | 0.00 | 0.00 | 80 | 1018.3 |
| 20260504024008 | 61 | 44 | 0.0 | 0.0 | 0.00 | 0.00 | 0.00 | 79 | 1018.3 |
| 20260504023508 | 62 | 44 | 0.0 | 0.0 | 0.00 | 0.00 | 0.00 | 79 | 1018.2 |
| 20260504022009 | 62 | 43 | 0.0 | 0.0 | 0.00 | 0.00 | 0.00 | 78 | 1018.2 |
| 20260504021508 | 63 | 43 | 0.0 | 0.0 | 0.00 | 0.00 | 0.00 | 78 | 1018.1 |
| 20260504021008 | 63 | 43 | 0.0 | 0.0 | 0.00 | 0.00 | 0.00 | 77 | 1018.1 |
| 20260504020506 | 63 | 43 | 0.0 | 0.0 | 0.00 | 0.00 | 0.00 | 77 | 1018.0 |
| 20260504020010 | 64 | 43 | 0.0 | 0.0 | 0.00 | 0.00 | 0.00 | 76 | 1018.0 |
| 20260504015507 | 64 | 43 | 0.0 | 0.0 | 0.00 | 0.00 | 0.00 | 75 | 1017.9 |
| 20260504015008 | 64 | 43 | 0.0 | 0.0 | 0.00 | 0.00 | 0.00 | 75 | 1017.7 |
| 20260504014007 | 65 | 43 | 0.0 | 0.0 | 0.00 | 0.00 | 0.00 | 74 | 1017.7 |
| 20260504013506 | 65 | 43 | 0.0 | 0.0 | 0.00 | 0.00 | 0.00 | 74 | 1017.6 |
| 20260504013008 | 65 | 43 | 0.0 | 0.0 | 0.00 | 0.00 | 0.00 | 74 | 1017.6 |
| 20260504012507 | 66 | 43 | 0.0 | 0.0 | 0.00 | 0.00 | 0.00 | 73 | 1017.6 |
| 20260504012008 | 66 | 43 | 0.0 | 1.0 | 0.00 | 0.00 | 0.00 | 72 | 1017.5 |
| 20260504011507 | 67 | 43 | 0.0 | 1.0 | 0.00 | 0.00 | 0.00 | 72 | 1017.4 |
| 20260504011008 | 67 | 43 | 0.0 | 0.0 | 0.00 | 0.00 | 0.00 | 72 | 1017.4 |
| 20260504010507 | 67 | 43 | 0.0 | 0.0 | 0.00 | 0.00 | 0.00 | 71 | 1017.1 |
| 20260504010009 | 68 | 43 | 0.0 | 0.0 | 0.00 | 0.00 | 0.00 | 70 | 1017.0 |
| 20260504005506 | 68 | 43 | 0.0 | 0.0 | 0.00 | 0.00 | 0.00 | 69 | 1017.1 |
| 20260504005007 | 69 | 43 | 0.0 | 0.0 | 0.00 | 0.00 | 0.00 | 69 | 1016.9 |
| 20260504004507 | 69 | 43 | 0.0 | 0.0 | 0.00 | 0.00 | 0.00 | 68 | 1017.0 |
| 20260504004008 | 69 | 43 | 0.0 | 0.0 | 0.00 | 0.00 | 0.00 | 68 | 1017.0 |
| 20260504003507 | 70 | 43 | 0.0 | 1.0 | 0.00 | 0.00 | 0.00 | 68 | 1017.1 |
| 20260504003009 | 70 | 43 | 0.0 | 1.0 | 0.00 | 0.00 | 0.00 | 67 | 1017.0 |
| 20260504002506 | 71 | 43 | 0.0 | 0.0 | 0.00 | 0.00 | 0.00 | 67 | 1017.1 |
| 20260504002008 | 71 | 43 | 0.0 | 0.0 | 0.00 | 0.00 | 0.00 | 66 | 1017.1 |
| 20260504001507 | 71 | 43 | 0.0 | 0.0 | 0.00 | 0.00 | 0.00 | 66 | 1017.1 |
| 20260504001010 | 71 | 43 | 0.0 | 0.0 | 0.00 | 0.00 | 0.00 | 64 | 1017.3 |
| 20260504000011 | 72 | 37 | 0.0 | 1.0 | 0.00 | 0.00 | 0.00 | 63 | 1017.1 |
| 20260503235007 | 73 | 40 | 0.0 | 0.0 | 0.00 | 0.00 | 0.00 | 61 | 1017.4 |
| 20260503234008 | 73 | 40 | 0.0 | 1.0 | 0.00 | 0.00 | 0.00 | 56 | 1017.4 |
| 20260503233008 | 74 | 40 | 0.0 | 1.0 | 0.00 | 0.00 | 0.00 | 53 | 1017.6 |
| 20260503232507 | 74 | 40 | 0.0 | 1.0 | 0.00 | 0.00 | 0.00 | 50 | 1017.7 |
| 20260503232008 | 74 | 40 | 0.0 | 1.0 | 0.00 | 0.00 | 0.00 | 50 | 1017.6 |